311P/PanSTARRS (2014)

Japanese version
Home page
Updated on November 3, 2015

---------------------------------------------------------------------

* Profile

Designation 311P/2013 P5
Discovery Date August 15, 2013
Magnitude 20.9 mag
Discoverer Pan-STARRS 1 telescope (Haleakala)

* Pictures

* Orbital Elements

Epoch 2014 Apr. 13.0 TT = JDT 2456760.5
T 2014 Apr. 15.93112 TT                                 MPCW
q   1.9361430            (2000.0)            P               Q
n   0.30441617     Peri.  144.28192     +0.44292854     -0.89247340
a   2.1885555      Node   279.28876     +0.80115354     +0.43678753
e   0.1153329      Incl.    4.96850     +0.40245162     +0.11272925
P   3.24
From 156 observations 2010 Oct. 17-2015 Mar. 16, mean residual 0".4.

* Magnitudes Graph

        H = 17.5  G = 0.15

---------------------------------------------------------------------

The orbital elements are published on M.P.E.C. 2015-S97.
The magnitudes graphs are made with Comet for Windows.

---------------------------------------------------------------------

Copyright(C) Seiichi Yoshida (comet@aerith.net). All rights reserved.